ANIK F1R

Last updated on Tue Sep 22 2026 00:03:11 GMT+0000 (Coordinated Universal Time)

1 28868U 05036A 26264.48716581 -.00000077 00000+0 00000+0 0 9999 2 28868 4.5524 75.3276 0003009 58.7825 294.3521 1.00272531 47414
UTC large
Height (km)
Speed (km/s)
/
Latitude / Longitude
Inclination (degrees)
Orbital Period (minutes)
Azimuth
Elevation
Range (km)
Doppler Factor

Next 0 passes for location: London (51.5072 / 0.1276)

No passes found over London.
ANIK F1R